Regional Weather Roundup
Issued by NWS

Home | Current Version | Previous Version | Graphics & Text | Print | Product List | Glossary On
Versions: 1 2 3 4 5 6 7 8 9 10 11 12 13 14 15 16 17 18 19 20 21 22 23 24 25 26 27 28 29 30 31 32 33 34 35 36 37 38 39 40 41 42 43 44 45 46 47 48 49 50
000
ASUS45 KPSR 272100
RWRAZ

PRELIMINARY ARIZONA REGIONAL HOURLY WEATHER ROUNDUP
NATIONAL WEATHER SERVICE PHOENIX AZ
200 PM MST FRI FEB 27 2015

NOTE: FAIR INDICATES FEW OR NO CLOUDS BELOW 12,000 FEET WITH NO
SIGNIFICANT WEATHER AND/OR OBSTRUCTIONS TO VISIBILITY.

AZZ001>003-036-272200-
NORTHWEST ARIZONA

CITY           SKY/WX    TMP DP  RH WIND       PRES   REMARKS
KINGMAN        SUNNY     62  23  22 SW13      29.69F
$$

AZZ004>008-015-016-018-272200-
NORTH CENTRAL ARIZONA

CITY           SKY/WX    TMP DP  RH WIND       PRES   REMARKS
GRAND CANYON   CLOUDY    41  28  60 SW15G22   29.75F
PRESCOTT       PTSUNNY   53  21  28 SW15G23   29.74F
FLAGSTAFF      NOT AVBL
PAGE           CLOUDY    43  34  70 NE9       29.76F
$$

AZZ009>014-017-272200-
NORTHEAST ARIZONA

CITY           SKY/WX    TMP DP  RH WIND       PRES   REMARKS
WINSLOW        NOT AVBL
SAINT JOHNS    CLOUDY    51  20  29 W18G29    29.73F
WINDOW ROCK    FLURRIES  36  29  75 W9        29.78F WCI  29
$$

AZZ023-272200-
GREATER PHOENIX AREA

CITY           SKY/WX    TMP DP  RH WIND       PRES   REMARKS
PHOENIX        MOSUNNY   75  25  15 W8G17     29.66F
GLENDALE       MOSUNNY   72  28  20 E3        29.69F
DEER VALLEY    SUNNY     70  21  15 VRB6G20   29.68F
SCOTTSDALE     SUNNY     72  25  17 VRB3      29.69F
MESA-FALCON    MOSUNNY   72  25  17 SW12      29.68F
MESA-GATEWAY   MOSUNNY   73  28  19 SW8G18    29.70F
CHANDLER       MOSUNNY   75  30  19 SW9G23    29.68F
$$

AZZ027-028-272200-
SOUTHWEST MARICOPA COUNTY AND PINAL COUNTY

CITY           SKY/WX    TMP DP  RH WIND       PRES   REMARKS
CASA GRANDE    SUNNY     75  28  17 SW10G22   29.68F
GILA BEND      SUNNY     76  27  16 SW12G21   29.67F
$$

AZZ503-504-507>509-272200-
SOUTHEAST ARIZONA

CITY           SKY/WX    TMP DP  RH WIND       PRES   REMARKS
TUCSON         SUNNY     74  24  15 W17G25    29.74F
DAVIS-MONTHAN  SUNNY     72  26  17 SW13G24   29.72F
RYAN FIELD       N/A     73  28  19 S20G25    29.73F
NOGALES        SUNNY     70  22  16 S24G31    29.79F
SIERRA VISTA   MOSUNNY   66  18  15 SW23G30   29.79F
SAFFORD        SUNNY     65  26  23 E9        29.74F
$$

AZZ020-021-025-026-031-272200-
SOUTHWEST ARIZONA

CITY           SKY/WX    TMP DP  RH WIND       PRES   REMARKS
YUMA           MOSUNNY   75  42  30 SW5       29.68F
$$

CAZ031-033-041-043-047-048-061-272200-
SOUTHERN CALIFORNIA

CITY           SKY/WX    TMP DP  RH WIND       PRES   REMARKS
DOWNTOWN L.A.  CLOUDY    64  49  57 CALM      29.80F
L.A. AIRPORT   PTSUNNY   62  54  74 S10       29.80F
SAN DIEGO      PTSUNNY   64  52  64 S16       29.85F
BURBANK        CLOUDY    61  48  62 VRB3      29.79F
ONTARIO        CLOUDY    60  46  59 W7        29.80F
RIVERSIDE      CLOUDY    62  46  55 W7        29.80F
PALM SPRINGS   MOSUNNY   74  40  29 NW16G22   29.67F
EL CENTRO NAS  MOSUNNY   80  36  20 SW13      29.65F
IMPERIAL       SUNNY     77  39  25 VRB5      29.65F
BLYTHE         SUNNY     73  32  22 S8        29.66F
$$

NVZ020-UTZ003-272200-
SOUTHERN NEVADA-UTAH

CITY           SKY/WX    TMP DP  RH WIND       PRES   REMARKS
LAS VEGAS      NOT AVBL
SALT LAKE CITY PTSUNNY   41  24  51 S5        29.74F
$$

NMZ009-TXZ055-272200-
NEW MEXICO-WEST TEXAS

CITY           SKY/WX    TMP DP  RH WIND       PRES   REMARKS
ALBUQUERQUE    FLURRIES  27  22  81 N6        29.91F WCI  20
EL PASO        MOSUNNY   44  24  45 E12       29.94F
$$


........................KEY........................
SKY/WX - SKY CONDITION/WEATHER
TMP    - TEMPERATURE IN FAHRENHEIT
DP     - DEW POINT IN FAHRENHEIT
RH     - RELATIVE HUMIDITY IN PERCENT
WIND   - DIRECTION AND SPEED IN MILES PER HOUR (MPH)
VRB    - VARIABLE WIND DIRECTION
PRES   - MEAN SEA LEVEL PRESSURE IN INCHES OF MERCURY
         F - FALLING PRESSURE   R - RISING PRESSURE
         S - STEADY PRESSURE
VSB    - VISIBILITY IN MILES
HX     - HEAT INDEX IN FAHRENHEIT
WCI    - WIND CHILL INDEX IN FAHRENHEIT
TC     - TEMPERATURE IN CELSIUS WHICH IS ALSO KNOWN AS
         TEMPERATURE IN CENTIGRADE
AFB    - AIR FORCE BASE
         LUKE AFB IS LUKE AIR FORCE BASE
         DAVIS-MONTHAN IS DAVIS-MONTHAN AIR FORCE BASE
NAS    - NAVAL AIR STATION
         EL CENTRO NAS IS EL CENTRO NAVAL AIR STATION
N/A    - NOT AVAILABLE


USA.gov is the U.S. government's official web portal to all federal, state and local government web resources and services.